Valdosta Regional, GA

10:01 PM EDT on April 19, 2018 (GMT -0400)
Valdosta Regional

Weather History for KVLD - October, 2013

Change the Weather History Date:

Thursday, October 3, 2013

  Actual Average Record
Temperature  
Mean Temperature 76 °F 73 °F  
Max Temperature 89 °F 84 °F 90 °F (2016)
Min Temperature 62 °F 62 °F 48 °F (2001)
Degree Days  
Heating Degree Days 0 0  
Month to date heating degree days 0 0  
Since 1 July heating degree days 0 1  
Cooling Degree Days 11 8  
Month to date cooling degree days 35 24  
Year to date cooling degree days 2763 2249  
Growing Degree Days 26 (Base 50)    
Moisture  
Dew Point 62 °F    
Average Humidity 66    
Maximum Humidity 90    
Minimum Humidity 41    
Precipitation  
Precipitation 0.00 in 0.11 in 0.42 in (2016)
Month to date precipitation 0.00 0.32  
Year to date precipitation 36.00 41.99  
Sea Level Pressure  
Sea Level Pressure 30.10 in    
Wind  
Wind Speed 2 mph (SE)    
Max Wind Speed 9 mph    
Max Gust Speed 16 mph    
Visibility 9 miles    
Events      
T = Trace of Precipitation, MM = Missing Value Source: NWS Daily Summary

Daily Weather History Graph

Daily Weather History Graph

Search for Another Location

Airport or City:

Astronomy

Oct. 03, 2013 Rise Set
Actual Time 7:28 AM EDT 7:15 PM EDT
Civil Twilight 7:03 AM EDT 7:39 PM EDT
Nautical Twilight 6:36 AM EDT 8:07 PM EDT
Astronomical Twilight 6:07 AM EDT 8:35 PM EDT
Moon 6:04 AM EDT (10/3) 6:21 PM EDT (10/3)
Length of Visible Light 12h 35m
Length of Day
11h 47m
Waning Crescent, 2% of the Moon is Illuminated
Oct 3
Waning Crescent
Oct 4
New
Oct 11
First Quarter
Oct 18
Full
Oct 26
Last Quarter

Hourly Weather History & Observations

Time (EDT) Temp. Heat Index Dew Point Humidity Pressure Visibility Wind Dir Wind Speed Gust Speed Precip Events Conditions
12:53 AM 66.0 °F - 57.9 °F 75% 30.13 in 10.0 mi Calm Calm - N/A   Clear
1:53 AM 64.0 °F - 57.9 °F 80% 30.12 in 9.0 mi Calm Calm - N/A   Clear
2:53 AM 63.0 °F - 57.9 °F 84% 30.11 in 5.0 mi Calm Calm - N/A   Haze
3:53 AM 62.1 °F - 57.9 °F 86% 30.09 in 6.0 mi Calm Calm - N/A   Clear
4:53 AM 62.1 °F - 57.9 °F 86% 30.08 in 5.0 mi Calm Calm - N/A   Clear
5:53 AM 63.0 °F - 57.9 °F 84% 30.08 in 6.0 mi Calm Calm - N/A   Haze
6:53 AM 63.0 °F - 59.0 °F 87% 30.09 in 7.0 mi Calm Calm - 0.01 in   Clear
7:53 AM 64.0 °F - 60.1 °F 87% 30.10 in 7.0 mi Calm Calm - N/A   Haze
8:53 AM 66.9 °F - 62.1 °F 84% 30.12 in 8.0 mi Calm Calm - N/A   Haze
9:53 AM 70.0 °F - 63.0 °F 78% 30.14 in 10.0 mi ENE 3.5 mph - N/A   Haze
10:53 AM 77.0 °F - 64.0 °F 64% 30.15 in 10.0 mi East 6.9 mph - N/A   Haze
11:53 AM 82.9 °F 85.0 °F 66.0 °F 56% 30.15 in 10.0 mi Variable 3.5 mph - N/A   Scattered Clouds
12:53 PM 86.0 °F 88.2 °F 66.0 °F 51% 30.14 in 10.0 mi SSE 9.2 mph - N/A   Scattered Clouds
1:53 PM 86.0 °F 87.3 °F 64.0 °F 48% 30.11 in 10.0 mi SSE 4.6 mph - N/A   Partly Cloudy
2:53 PM 89.1 °F 90.3 °F 64.0 °F 43% 30.09 in 10.0 mi Calm Calm - N/A   Mostly Cloudy
3:53 PM 89.1 °F 90.0 °F 63.0 °F 42% 30.07 in 10.0 mi SSE 3.5 mph - N/A   Scattered Clouds
4:53 PM 87.1 °F 87.5 °F 62.1 °F 43% 30.06 in 10.0 mi SSE 3.5 mph - N/A   Clear
5:53 PM 84.9 °F 85.9 °F 63.0 °F 48% 30.06 in 10.0 mi East 3.5 mph - N/A   Clear
6:53 PM 81.0 °F 83.3 °F 66.9 °F 62% 30.07 in 10.0 mi Calm Calm - N/A   Clear
7:53 PM 75.9 °F - 68.0 °F 76% 30.08 in 10.0 mi Calm Calm - N/A   Clear
8:53 PM 73.0 °F - 66.0 °F 79% 30.10 in 10.0 mi Calm Calm - N/A   Clear
9:53 PM 73.0 °F - 66.0 °F 79% 30.12 in 10.0 mi Calm Calm - N/A   Clear
10:53 PM 75.0 °F - 66.9 °F 76% 30.12 in 10.0 mi Calm Calm - N/A   Scattered Clouds